Location: *
(43.0896°S, 179.8021°W)
Time: 00:52:05
(UTC+00:00)

Daily predictions for brighter satellites

Satellite Brightness Start Highest point End
(mag) Time Altitude Azimuth Time Altitude Azimuth Time Altitude Azimuth
Cosmos 1943 Rocket 3.2 07:57:30 10° SW 08:02:48 45° WNW 08:08:00 10° N
CSL-04 Rocket 3.7 07:58:18 10° SSE 08:03:39 68° ENE 08:08:56 10° N
SL-4 R/B 3.4 08:07:13 10° W 08:11:21 42° SSW 08:15:11 10° SE
FALCON 9 DEB 2.9 08:12:35 10° NW 08:15:47 65° NE 08:19:02 10° ESE
CENTAUR R/B 4.1 08:11:45 10° WNW 08:19:27 49° SW 08:26:05 10° SSE
Cosmos 2285 Rocket 4.2 08:13:26 10° SSW 08:19:55 63° ESE 08:26:18 10° NNE
Cosmos 1455 4.4 08:18:04 10° NW 08:21:35 31° WSW 08:25:08 10° SSW
Meteor 2-15 4.5 08:19:45 10° N 08:25:52 71° E 08:32:01 10° SSE
MetOp-A 4.3 08:23:01 10° SSE 08:28:23 56° E 08:33:39 10° N
FALCON 9 DEB 3.1 08:28:43 10° WNW 08:31:57 77° SW 08:35:14 10° SE
Cosmos 1825 4.0 08:29:25 10° SSW 08:32:50 32° W 08:36:14 10° NNW
Cosmos 1745 Rocket 4.3 08:30:13 10° S 08:36:32 54° ESE 08:42:34 11° NNE
USA 186 2.4 08:36:07 10° S 08:39:19 59° WSW 08:42:30 10° NNW
ERBS 2.3 08:35:58 10° NW 08:39:22 87° SSW 08:42:50 10° SE
Cosmos 923 Rocket 4.3 08:36:01 10° N 08:41:02 47° ENE 08:46:05 10° SSE
ATLAS 3B R/B 2.9 08:34:40 10° NNW 08:42:09 78° ENE 08:49:35 10° SE
ARGOS 4.2 08:37:46 10° S 08:43:02 49° WSW 08:48:12 10° NW
SJ-6B 2.6 08:39:26 10° SSE 08:43:16 77° ENE 08:47:02 10° N
Cosmos 1869 4.1 08:40:07 12° NNE 08:43:28 36° E 08:47:18 10° SSE
USA 215 3.3 08:42:05 13° NE 08:48:03 86° SE 08:54:43 10° SW
Cosmos 1680 Rocket 3.9 08:43:41 10° N 08:48:34 41° ENE 08:53:31 10° SSE
Cosmos 158 Rocket 4.0 08:44:34 10° N 08:49:50 63° ENE 08:55:01 10° SSE
Resurs 01 Rocket 2.6 08:47:59 10° SE 08:51:59 30° E 08:54:32 18° NE
Cosmos 1656 Rocket 4.4 08:48:37 10° SSW 08:54:10 53° WNW 08:59:40 10° N
Cosmos 1408 Rocket 4.4 08:52:00 10° S 08:56:08 36° ESE 08:58:34 20° NE
Meteor 1-27 4.2 08:57:14 10° N 09:02:49 81° E 09:08:33 10° SSE
ATLAS CENTAUR R/B 3.2 09:00:09 10° SW 09:04:35 83° SE 09:12:51 18° NE
IRS-1A Rocket 4.3 09:00:49 10° SSE 09:06:35 84° ENE 09:12:23 10° NNW
Cosmos 1386 Rocket 4.5 09:00:58 10° S 09:07:20 86° E 09:12:43 14° N
FREGAT/IRIS 2.8 09:04:58 10° S 09:07:21 52° WSW 09:09:13 14° NNW
IGS 5A 4.3 09:08:05 10° SSE 09:11:56 33° E 09:13:19 26° NE
Cosmos 2151 4.5 09:09:57 10° SSW 09:13:53 34° W 09:17:47 10° NNW
CZ-2C R/B 2.8 09:12:58 10° WNW 09:15:54 20° NNW 09:16:24 20° N
Ariane Rocket 3.3 09:14:12 10° S 09:19:19 70° WSW 09:24:22 10° NNW
Cosmos 1371 Rocket 4.4 09:17:36 10° S 09:22:45 51° ESE 09:25:22 27° NE
Landsat 7 4.4 09:18:19 10° SSE 09:22:53 40° E 09:24:45 28° NE
Cosmos 2056 Rocket 4.0 09:18:06 10° S 09:23:06 45° ESE 09:25:39 26° ENE
OBJECT-B 2.7 09:21:21 10° S 09:24:17 30° WSW 09:27:12 10° NW
Resurs 1-3 3.8 09:21:08 10° S 09:25:37 74° WSW 09:30:01 10° NNW
Cosmos 2112 Rocket 3.9 09:20:31 10° NNW 09:25:43 76° ENE 09:31:01 10° SSE
Cosmos 1624 Rocket 4.4 09:23:02 10° SSW 09:28:21 52° ESE 09:30:56 28° NE
SAR-Lupe-2 3.9 09:27:34 37° NE 09:28:37 53° ESE 09:32:12 10° S
Okean 3 Rocket 4.4 09:26:15 10° SSW 09:30:39 49° W 09:34:05 16° NNW
Cosmos 2315 Rocket 4.0 09:26:11 18° N 09:31:00 72° E 09:37:19 10° SSE
COSMOS 2406 4.3 09:30:22 23° ENE 09:31:02 24° ENE 09:35:29 10° SE
Cosmos 1633 4.5 09:29:02 10° SSW 09:32:10 27° W 09:35:07 11° NNW
Cosmos 371 Rocket 3.3 09:28:11 10° SSW 09:33:10 89° ESE 09:35:33 31° NNE
SPOT 3 Rocket 3.5 09:30:37 10° SSE 09:35:56 82° ENE 09:39:47 19° N
ASTEX 1 3.4 09:33:59 26° N 09:36:52 89° W 09:41:53 10° S
Cosmos 1743 Rocket 3.9 09:32:30 10° S 09:36:58 52° ESE 09:38:26 36° NE
MetOp-B 4.2 09:37:56 10° SSE 09:43:21 63° ENE 09:46:03 29° N
Cosmos 1697 Rocket 4.3 09:39:30 10° S 09:44:04 24° SE 09:47:02 16° E
Thor Agena Rocket 4.4 09:42:13 27° ENE 09:44:13 36° ESE 09:48:57 10° S
Cosmos 405 Rocket 3.9 09:40:48 10° SSW 09:44:33 39° W 09:46:47 21° NNW
Cosmos 2221 2.6 09:44:40 27° NNW 09:47:03 80° W 09:51:28 10° S
Gblst 52 Del rocket 4.5 09:42:16 10° WSW 09:48:13 77° SSE 09:52:03 27° ENE
Cosmos 1606 3.7 09:48:27 32° E 09:48:27 32° E 09:51:56 10° SSE
Cosmos 389 Rocket 3.0 09:49:43 31° NW 09:51:07 56° WSW 09:54:35 10° S
SL-4 R/B 4.3 09:48:22 10° WSW 09:51:40 23° S 09:54:48 10° SE
Cosmos 1833 Rocket 3.4 09:55:06 31° ENE 09:55:37 32° ENE 10:00:36 10° SE
Cosmos 2082 Rocket 3.8 09:58:05 17° E 09:58:05 17° E 10:01:06 10° ESE
SPOT 1/Viking Rocket 3.6 09:55:18 10° SSE 10:00:36 66° ENE 10:02:27 39° NNE
Cosmos 1862 3.3 09:57:09 10° S 10:01:16 80° W 10:02:09 53° N
Cosmos 1656 3.9 10:01:11 10° SSW 10:06:51 61° ESE 10:08:49 39° ENE
ARIANE 5 R/B 2.5 10:06:29 10° SSE 10:11:04 84° ENE 10:12:09 52° N
Cosmos 1933 4.5 10:14:10 31° ESE 10:14:10 31° ESE 10:17:22 10° SSE
USA 281 3.5 10:11:24 10° SE 10:17:48 48° ENE 10:19:31 40° NNE
Terra 2.5 10:18:04 10° SSE 10:22:33 39° E 10:22:33 39° E
Cosmos 304 Rocket 4.1 10:18:29 10° SSW 10:23:17 60° WNW 10:24:20 47° NNW
GP-B 3.3 10:20:20 10° S 10:24:51 68° W 10:25:52 50° NW
USA 290 3.5 10:27:04 35° SSE 10:27:04 35° SSE 10:29:08 10° SSE
Sich 1 3.0 10:21:36 10° S 10:26:05 67° E 10:26:22 65° ENE
Resurs 01 Rocket 3.5 10:24:32 10° S 10:28:23 28° WSW 10:32:06 10° NW
USA 215 4.5 10:29:26 23° NNW 10:31:30 27° NW 10:37:00 10° WSW
Nimbus 7 Rocket 4.4 10:30:04 46° NNE 10:32:05 88° WNW 10:38:14 10° SSW
Spot 2 Rocket 3.8 10:32:56 10° S 10:38:04 65° WSW 10:39:59 37° NW
Cosmos 1151 Rocket 3.7 10:39:29 43° ESE 10:39:29 43° ESE 10:43:08 10° SSE
Cosmos 2154 Rocket 4.1 10:33:47 10° S 10:40:10 68° E 10:41:52 49° NE
Cosmos 1420 Rocket 4.2 10:37:25 10° SSW 10:42:36 61° WNW 10:43:29 52° NNW
Cosmos 1048 Rocket 3.9 10:45:08 64° NE 10:45:39 68° ENE 10:51:02 10° SSE
Cosmos 1980 Rocket 3.2 10:42:11 10° S 10:47:27 38° ESE 10:49:05 31° E
CARTOSAT-1 4.0 10:44:30 10° S 10:48:50 56° WSW 10:49:34 49° WNW
Meteor 1-25 Rocket 4.2 10:45:46 10° S 10:51:26 75° E 10:52:23 60° NE
Cosmos 2360 4.4 10:46:51 10° SSW 10:52:36 62° ESE 10:53:48 51° ENE
Meteor 1-4 Rocket 3.7 10:58:59 39° WSW 10:58:59 39° WSW 11:02:12 10° S
ERS-1 Rocket 3.2 10:53:55 10° S 10:58:59 66° WSW 11:00:06 51° NW
Cosmos 1607 3.8 10:53:03 10° SW 10:59:11 90° NW 11:00:25 60° NNE
Gbstr 26 Del rocket 4.3 11:00:56 10° SW 11:04:31 34° SSE 11:05:58 27° ESE
SPOT 5 3.2 11:02:41 10° S 11:07:06 54° WSW 11:07:48 49° WNW
NOSS 3-1 (C) 4.2 11:05:30 44° N 11:08:14 62° ENE 11:16:01 10° SE
Cosmos 494 Rocket 3.9 11:08:36 74° NE 11:08:46 75° ENE 11:14:07 10° SSE
Cosmos 1515 Rocket 4.4 11:10:15 42° ESE 11:10:15 42° ESE 11:13:49 10° SSE
Geosat 4.2 11:10:05 56° NW 11:10:18 57° WNW 11:15:19 10° SW
Cosmos 1470 Rocket 3.9 11:08:07 10° S 11:12:01 56° SE 11:12:01 56° SE
EO 1 Del DPAF 4.2 11:13:54 43° WSW 11:13:54 43° WSW 11:16:50 10° SSW
Cosmos 1452 Rocket 3.7 11:08:17 10° SSW 11:13:32 57° WNW 11:13:54 55° WNW
Meteor 1-26 Rocket 4.3 11:13:50 63° N 11:14:56 89° E 11:21:05 10° S
COSMOS 2406 3.8 11:12:22 30° WNW 11:14:56 52° WSW 11:20:33 10° SSE
Cosmos 1633 Rocket 3.3 11:12:17 10° SSW 11:16:23 65° WSW 11:16:23 65° WSW
Cosmos 1437 Rocket 4.3 11:18:41 29° SE 11:18:41 29° SE 11:21:10 10° SSE
Cosmos 1602 4.4 11:14:09 10° S 11:17:19 54° S 11:17:19 54° S
USA 229 DEB 4.0 11:22:15 51° NNE 11:23:23 55° ENE 11:30:35 10° SE
USA 229 4.0 11:22:22 51° NNE 11:23:29 55° ENE 11:30:41 10° SE
Cosmos 1812 4.3 11:26:06 29° SE 11:26:06 29° SE 11:28:26 10° SSE
Cosmos 1697 Rocket 2.8 11:22:51 10° SSW 11:28:26 58° WNW 11:28:45 57° NW
Cosmos 292 Rocket 3.8 11:24:41 10° SSW 11:29:23 74° WSW 11:29:23 74° WSW
SL-4 R/B 3.4 11:28:34 10° SW 11:32:06 32° SSE 11:32:17 32° SSE
Cosmos 1500 4.3 11:28:46 10° S 11:31:34 41° SSE 11:31:34 41° SSE
CZ-4 R/B 4.0 11:32:48 63° ESE 11:32:48 63° ESE 11:37:24 10° S
PSLV R/B 3.9 11:34:36 62° SW 11:34:36 62° SW 11:38:23 10° SSW
Lacrosse 5 2.8 11:37:56 37° E 11:37:56 37° E 11:41:20 10° SE
Cosmos 1933 Rocket 3.9 11:33:06 10° S 11:37:07 65° SSE 11:37:07 65° SSE
Cosmos 1833 Rocket 3.8 11:36:45 25° WNW 11:39:25 40° WSW 11:44:46 10° SSE
NOSS 3-1 (A) 4.2 11:38:32 50° N 11:40:35 62° ENE 11:48:21 10° SE
Cosmos 2369 3.9 11:35:14 10° SSW 11:40:52 57° WNW 11:41:03 57° WNW
Cosmos 2082 Rocket 2.3 11:39:54 56° WNW 11:40:55 68° WSW 11:46:36 10° SSE
Meteor 1-14 Rocket 4.3 11:44:30 10° SSW 11:50:25 70° W 11:51:00 65° NW
Cosmos 2181 Rocket 4.0 11:52:11 64° NNW 11:53:19 84° W 11:59:53 10° S
